Location: ????????
(55.6189°N, 38.3031°E)
Time: 14:31:57
(UTC+00:00)

SL-16 R/B - Pass Details

Date: 28 February 2020
Orbit: 843 x 847 km, 71.0° (Epoch: 31 March)

Event Time Altitude Azimuth Distance (km) Brightness Sun altitude
Exits shadow 02:12:32 24° 299° (WNW) 1,697 3.4 -19.0°
Maximum altitude 02:14:18 28° 329° (NNW) 1,543 3.4 -18.7°
Drops below altitude 10° 02:19:09 10° 27° (NNE) 2,477 5.2 -18.0°
Sets 02:21:59 0° 39° (NE) 3,414 6.2 -17.7°
